Retour au catalogue

STARLINK-34873

ActifCommunicationsVLEO
NORAD 65346·PAYLOAD·🇺🇸 United States

Lancé Aug 27, 2025 depuis Cape Canaveral Space Force Station

Loading…

Prochains Passages (prochaines 24 heures)

TLE

FraisSource: CelesTrak SupGP

Époque: Sep 14, 2026, 20:44 UTC

1 65346C 25189Z   26257.86437500  .00040744  00000+0  12043-2 0  2571
2 65346  53.1601  45.7213 0001293  81.4836 256.8724 15.34357118    12

Suivez STARLINK-34873 en temps réel avec AllMySat

Download on the App Store